COSMOS 1275 DEB, 13813

Orbit data source: Space-Track

COSMOS 1275 DEB, 13813 is space debris in LEO originally from a launch on Thu, 04 Jun 1981 UTC launched from the Plesetsk Missile And Space Complex (PKMTR). Debris objects in space refer to the collection of defunct objects orbiting the Earth. Examples of debris include non-operational satellites, rocket bodies, and fragments generated from explosions, collisions, or faulty payload assembly.

Loading next visibility...
Identifier
13813, 1981-053HH
Orbit
LEO
Country
Flag of CISCIS
Related business
Manufacturer
Unknown
Mission
Spacecraft
Bus & Motor
Unknown
Mass
Unknown
Launch date (UTC)
1981-06-04 (45 years ago)
Launch vehicle
Unknown
Launch site
Plesetsk Missile And Space Complex (PKMTR)
Object type
Payload
Rocket body
Debris
Shape & HBR
Unknown shape, 0.1 m
Radar Cross Section
Small (<0.1 m²)

Expand to show TLE details & history
Last TLE update: 10 hours ago

TLE from 10 hours ago
0 COSMOS 1275 DEB
1 13813U 81053HH  26072.64717551  .00002104  00000-0  10627-2 0  9991
2 13813  82.9358 308.9110 0042542  33.2489 356.0744 14.15354100200343
Epoch: 2026-03-13T15:31Z
TLE epoch observation values (Epoch: 2026-03-13T15:31:55.964Z)
Latitude
29.0935°
Longitude
-91.4189°
Altitude
814.11 km
Speed
7.465 km/s
True Right ascension
20h 51m 22s
True Declination
28° 56' 56"
Sunlit
Object was in daylight at epoch
Visualization orbit readout
Latitude
Unknown
Longitude
Unknown
Altitude
Unknown
Speed
Unknown
Apparent Right ascension
Unknown
Apparent Declination
Unknown
Sunlit
N/A
Visualization observer readout
Local Sidereal Time
06:14:06
Azimuth
Unknown
Elevation
Unknown
Doppler factor
Unknown
Orbital elements
Apogee altitude
868.901 km
Perigee altitude
807.501 km
Semi-major axis
7,216.338 km
Eccentricity
0.00425
Inclination
82.9358°
RAAN
308.911°
Arg. of periapsis
33.2489°
True anomaly
356.04085°
Mean anomaly
356.0744°
Eccentric anomaly
356.05764°
Mean motion
3.54053 °/min
Orbital period
101.68 mins
BSTAR
0.0010627
Loading maneuver chart data...
Computing Atmospheric mass density...
Loading historical data...
Loading historical data...
Loading historical data...
Loading historical data...
Loading historical data...
Loading historical data...
Loading historical data...

Documentation

Showing up to 5 results
|